Location: ?
(35.4214°N, 139.3011°E)
Time: 22:04:42
(UTC+00:00)

USA 245 - Pass Details

Date: 14 July 2020
Orbit: 270 x 1010 km, 97.9° (Epoch: 09 August)

Event Time Altitude Azimuth Distance (km) Brightness Sun altitude
Exits shadow 11:42:48 40° 131° (SE) 853 3.7 -18.0°
Maximum altitude 11:44:00 59° 74° (ENE) 704 3.6 -18.2°
Drops below altitude 10° 11:48:43 10° 355° (N) 2,206 7.1 -18.8°
Sets 11:51:18 0° 352° (N) 3,260 8.1 -19.2°
